Home   Weather   Boulogne-Billancourt   Past weeks

Flag for France Past Weather in Boulogne-Billancourt, Île-de-France, France — Yesterday and Last 2 Weeks

57 °F

Passing clouds.

Feels Like: 57 °F
Forecast: 40 / 60 °F
Wind: 2 mph from North

Location: Paris-Orly

Current Time: Oct 27, 2016 at 3:08:22 PM

Latest Report: Oct 27, 2016 at 2:30 PM

Visibility: 6 mi

Pressure: 30.54 "Hg

Humidity: 82%

Dew Point: 52 °F

Location of Boulogne-BillancourtLocation

Past Weather in Boulogne-Billancourt — Graph


Boulogne-Billancourt Temperature Yesterday

Maximum temperature yesterday: 57 °F (at 2:00 PM)
Minimum temperature yesterday: 45 °F (at 11:00 PM)
Average temperature yesterday: 52 °F

High & Low Weather Summary for the Past Weeks

High70 °F (Oct 16, 4:00 PM)100% (Oct 14, 5:00 PM)30.57 "Hg (Oct 14, 5:00 PM)
Low39 °F (Oct 23, 6:30 AM)51% (Oct 12, 3:00 PM)29.59 "Hg (Oct 14, 4:30 PM)
Average52 °F89%30.03 "Hg
* Reported Oct 12 2:00 PM — Oct 27 2:00 PM, Boulogne-Billancourt, Weather by CustomWeather, © 2016

Note: Actual official high and low records may vary slightly from our data, if they occured in-between our weather recording intervals... More about our weather records


Boulogne-Billancourt Weather History for the Previous 24 Hours

Scroll right to see more
Time TempWeatherWind HumidityBarometerVisibility
2:00 PM
Thu, Oct 27
55 °FPassing clouds.3 mph88%30.57 "Hg5 mi
1:30 PM55 °FPassing clouds.2 mph88%30.57 "Hg4 mi
1:00 PM52 °FFog.3 mph94%30.57 "Hg3 mi
12:30 PM52 °FFog.2 mph100%30.57 "Hg2 mi
12:00 PM50 °FFog.3 mph100%30.57 "Hg2 mi
11:30 AM50 °FFog.No wind100%30.57 "Hg1 mi
11:00 AM48 °FFog.2 mph100%30.57 "Hg1 mi
10:30 AM48 °FFog.3 mph100%30.57 "Hg1 mi
10:00 AM48 °FFog.2 mph100%30.57 "Hg1 mi
9:30 AM48 °FFog.2 mph100%30.57 "Hg1 mi
9:00 AM48 °FFog.2 mph100%30.54 "Hg0 mi
8:30 AM48 °FFog.3 mph100%30.54 "Hg0 mi
8:00 AM48 °FFog.No wind100%30.54 "Hg0 mi
7:30 AM46 °FFog.2 mph100%30.54 "Hg0 mi
7:00 AM46 °FFog.1 mph100%30.54 "Hg0 mi
6:30 AM46 °FFog.1 mph100%30.51 "Hg0 mi
6:00 AM46 °FFog.2 mph100%30.51 "Hg0 mi
5:30 AM46 °FFog.2 mph100%30.51 "Hg0 mi
5:00 AM46 °FFog.No wind100%30.51 "Hg0 mi
4:30 AM46 °FFog.2 mph100%30.51 "Hg0 mi
4:00 AM46 °FFog.2 mph100%30.48 "Hg0 mi
3:30 AM46 °FDense fog.3 mph100%30.51 "Hg1 mi
3:00 AM46 °FDense fog.2 mph100%30.51 "Hg1 mi
2:30 AM46 °FDense fog.No wind100%30.51 "Hg2 mi
2:00 AM45 °FPassing clouds.No wind100%30.51 "Hg1 mi
1:30 AM46 °FPassing clouds.3 mph93%30.51 "Hg2 mi
12:30 AM45 °FFog.2 mph100%30.51 "Hg2 mi
12:00 AM45 °FFog.No wind93%30.48 "Hg2 mi
11:30 PM
Wed, Oct 26
45 °FLight fog.3 mph93%30.48 "Hg2 mi
11:00 PM45 °FLight fog.2 mph93%30.48 "Hg3 mi
10:30 PM46 °FFog.2 mph93%30.48 "Hg3 mi
10:00 PM46 °FClear.5 mph93%30.48 "Hg4 mi
9:30 PM46 °FClear.3 mph93%30.45 "Hg4 mi
9:00 PM46 °FClear.3 mph93%30.45 "Hg5 mi
8:30 PM50 °FClear.1 mph88%30.45 "Hg10 mi
8:00 PM50 °FClear.3 mph88%30.45 "Hg10 mi
7:30 PM52 °FClear.3 mph88%30.45 "Hg10 mi
7:00 PM52 °FClear.3 mph88%30.42 "Hg10 mi
6:30 PM54 °FPartly sunny.5 mph82%30.42 "HgN/A
6:00 PM55 °FPartly sunny.6 mph82%30.42 "HgN/A
5:30 PM55 °FPartly sunny.6 mph82%30.42 "HgN/A
5:00 PM57 °FScattered clouds.7 mph82%30.42 "HgN/A
4:30 PM57 °FPartly sunny.7 mph82%30.39 "HgN/A
4:00 PM57 °FPartly sunny.3 mph82%30.39 "HgN/A
3:30 PM57 °FPartly sunny.5 mph82%30.39 "HgN/A
3:00 PM57 °FPartly sunny.5 mph82%30.39 "HgN/A
Weather by CustomWeather, © 2016

See weather overviewHow to use our weather pages